INMARSAT 4-F3           
1 33278U 08039A   19265.55823536 -.00000145  00000-0  00000+0 0  9993
2 33278   3.0759  10.3823 0002939 184.3710 269.3814  1.00271514 40607
BREEZE-M DEB [TANK]     
1 33279U 08039B   19264.78960023 -.00000070  00000-0  15877-4 0  9991
2 33279  45.9772 148.1797 4850570 192.0761 150.0775  5.71672613230358
BREEZE-M R/B            
1 33280U 08039C   19265.54701208 -.00000181  00000-0  00000+0 0  9996
2 33280  23.1160  29.9489 5970977  34.9584 358.4797  2.01428154 81626